CW2857 Weather Reports


Display with metric or nautical units.
time (UTC)temp
F
wind
direction
speed
MPH
gust
MPH
rain 1hr
in
rain 24hr
in
rain mn
in
humidity
%
barometer
mb
20260504002554 64 360 11.0 23.0 0.00 0.00 0.00 33 1004.3
20260504002054 64 360 13.0 23.0 0.00 0.00 0.00 31 1004.1
20260504001559 64 360 14.0 21.0 0.00 0.00 0.00 31 1004.3
20260504001053 63 360 13.0 24.0 0.00 0.00 0.00 32 1004.4
20260504000554 63 360 14.0 27.0 0.00 0.00 0.00 33 1004.3
20260504000059 63 360 13.0 27.0 0.00 0.00 0.00 33 1004.3
20260503235553 63 360 14.0 22.0 0.00 0.00 0.00 33 1004.3
20260503235053 64 360 13.0 26.0 0.00 0.00 0.00 33 1004.2
20260503234552 64 360 15.0 28.0 0.00 0.00 0.00 34 1004.1
20260503234052 64 360 17.0 28.0 0.00 0.00 0.00 34 1004.1
20260503233553 63 360 15.0 31.0 0.00 0.00 0.00 35 1004.1
20260503233053 64 360 20.0 31.0 0.00 0.00 0.00 34 1004.1
20260503232555 64 360 18.0 30.0 0.00 0.00 0.00 34 1004.0
20260503232052 64 360 17.0 28.0 0.00 0.00 0.00 34 1003.6
20260503231550 64 360 18.0 31.0 0.00 0.00 0.00 33 1003.4
20260503231051 66 360 21.0 31.0 0.00 0.00 0.00 31 1003.4
20260503230550 70 360 13.0 22.0 0.00 0.00 0.00 23 1003.4
20260503230108 68 360 7.0 22.0 0.00 0.00 0.00 22 1003.2
20260503225549 68 360 7.0 28.0 0.00 0.00 0.00 24 1003.2
20260503225049 67 360 17.0 28.0 0.00 0.00 0.00 25 1003.3
20260503224550 67 360 14.0 25.0 0.00 0.00 0.00 25 1003.5
20260503224049 68 360 14.0 28.0 0.00 0.00 0.00 25 1003.9
20260503223549 68 360 17.0 36.0 0.00 0.00 0.00 24 1003.7
20260503223106 68 360 17.0 36.0 0.00 0.00 0.00 25 1003.5
20260503222548 68 360 18.0 35.0 0.00 0.00 0.00 26 1003.0
20260503222048 70 360 18.0 35.0 0.00 0.00 0.00 24 1002.8
20260503221551 69 360 16.0 34.0 0.00 0.00 0.00 25 1002.7
20260503221048 69 360 18.0 36.0 0.00 0.00 0.00 23 1003.0
20260503220548 70 360 15.0 38.0 0.00 0.00 0.00 23 1003.1
20260503220050 72 360 26.0 38.0 0.00 0.00 0.00 20 1002.7
20260503215547 76 360 14.0 28.0 0.00 0.00 0.00 16 1002.9
20260503215046 77 360 6.0 13.0 0.00 0.00 0.00 13 1002.6
20260503214555 77 360 5.0 13.0 0.00 0.00 0.00 13 1002.6
20260503214046 77 360 5.0 14.0 0.00 0.00 0.00 13 1002.6
20260503213546 78 360 3.0 14.0 0.00 0.00 0.00 13 1002.6
20260503213046 78 360 5.0 13.0 0.00 0.00 0.00 13 1002.8
20260503212544 78 360 5.0 13.0 0.00 0.00 0.00 13 1002.9
20260503212042 78 360 3.0 11.0 0.00 0.00 0.00 13 1003.0
20260503211542 78 360 2.0 15.0 0.00 0.00 0.00 13 1003.1
20260503211041 78 360 7.0 15.0 0.00 0.00 0.00 13 1003.2
20260503210541 78 360 1.0 8.0 0.00 0.00 0.00 13 1003.1
20260503210040 77 360 2.0 9.0 0.00 0.00 0.00 13 1003.2
20260503205539 78 360 3.0 12.0 0.00 0.00 0.00 13 1003.3
20260503205039 78 360 5.0 10.0 0.00 0.00 0.00 13 1003.4
20260503204543 77 360 0.0 9.0 0.00 0.00 0.00 13 1003.4
20260503204037 77 360 4.0 11.0 0.00 0.00 0.00 13 1003.5
20260503203536 78 360 4.0 12.0 0.00 0.00 0.00 13 1003.6
20260503203035 78 360 3.0 14.0 0.00 0.00 0.00 13 1003.6
20260503202535 78 360 3.0 12.0 0.00 0.00 0.00 13 1003.7
20260503202036 78 360 5.0 12.0 0.00 0.00 0.00 13 1003.8
20260503201535 78 360 5.0 9.0 0.00 0.00 0.00 13 1003.9
20260503201032 77 360 3.0 8.0 0.00 0.00 0.00 14 1004.0
20260503200532 77 360 2.0 13.0 0.00 0.00 0.00 14 1004.0
20260503200031 77 90 4.0 14.0 0.00 0.00 0.00 14 1004.2
20260503195530 79 360 9.0 14.0 0.00 0.00 0.00 13 1004.2
20260503195028 80 360 2.0 8.0 0.00 0.00 0.00 13 1004.4
20260503194529 80 360 3.0 10.0 0.00 0.00 0.00 13 1004.5
20260503194027 80 360 3.0 10.0 0.00 0.00 0.00 13 1004.6
20260503193525 80 360 3.0 6.0 0.00 0.00 0.00 13 1004.7
20260503193024 79 360 1.0 12.0 0.00 0.00 0.00 14 1004.8
20260503192524 79 360 6.0 12.0 0.00 0.00 0.00 13 1004.9
20260503192021 79 360 4.0 11.0 0.00 0.00 0.00 14 1004.9
20260503191521 79 360 3.0 12.0 0.00 0.00 0.00 14 1005.0
20260503191019 78 360 4.0 12.0 0.00 0.00 0.00 14 1005.1
20260503190519 78 360 4.0 11.0 0.00 0.00 0.00 14 1005.3
20260503190017 77 360 4.0 6.0 0.00 0.00 0.00 15 1005.4
20260503185517 77 360 2.0 6.0 0.00 0.00 0.00 15 1005.4
20260503185018 76 360 2.0 6.0 0.00 0.00 0.00 17 1005.6
20260503184514 75 360 3.0 8.0 0.00 0.00 0.00 18 1005.7
20260503184013 74 360 3.0 11.0 0.00 0.00 0.00 16 1005.7
20260503183516 75 360 3.0 11.0 0.00 0.00 0.00 16 1005.7
20260503183012 76 360 4.0 10.0 0.00 0.00 0.00 16 1005.7
20260503182512 75 360 1.0 8.0 0.00 0.00 0.00 17 1005.8
20260503182010 76 360 3.0 6.0 0.00 0.00 0.00 17 1005.9
20260503181523 75 360 2.0 10.0 0.00 0.00 0.00 17 1006.0
20260503181008 74 360 3.0 10.0 0.00 0.00 0.00 18 1006.1
20260503180507 74 360 5.0 9.0 0.00 0.00 0.00 19 1006.2
20260503180014 73 360 1.0 5.0 0.00 0.00 0.00 19 1006.2
20260503175507 73 360 2.0 8.0 0.00 0.00 0.00 19 1006.3
20260503175004 73 360 1.0 6.0 0.00 0.00 0.00 20 1006.4
20260503174503 73 360 2.0 6.0 0.00 0.00 0.00 21 1006.4
20260503174004 72 360 1.0 6.0 0.00 0.00 0.00 21 1006.4
20260503173600 72 360 3.0 6.0 0.00 0.00 0.00 22 1006.4
20260503173501 72 360 2.0 6.0 0.00 0.00 0.00 22 1006.4
20260503173112 71 360 2.0 5.0 0.00 0.00 0.00 22 1006.5
20260503172601 70 360 0.0 6.0 0.00 0.00 0.00 23 1006.5
20260503172057 70 360 2.0 6.0 0.00 0.00 0.00 23 1006.6
20260503171557 70 360 1.0 5.0 0.00 0.00 0.00 23 1006.5
20260503171057 70 360 3.0 6.0 0.00 0.00 0.00 23 1006.6
20260503170556 70 360 2.0 6.0 0.00 0.00 0.00 24 1006.6
20260503170107 69 360 0.0 6.0 0.00 0.00 0.00 24 1006.6
20260503150534 60 360 2.0 6.0 0.00 0.00 0.00 39 1007.1
20260503131029 57 360 3.0 11.0 0.00 0.00 0.00 48 1007.0
20260503130531 57 360 5.0 11.0 0.00 0.00 0.00 49 1007.1
20260503110521 58 360 6.0 13.0 0.00 0.00 0.00 43 1007.6
20260503081554 60 360 9.0 14.0 0.00 0.00 0.00 40 1008.9
20260503081053 59 360 7.0 11.0 0.00 0.00 0.00 45 1009.0
20260503080552 59 360 4.0 9.0 0.00 0.00 0.00 43 1009.1
20260503072548 60 360 3.0 9.0 0.00 0.00 0.00 41 1009.7
20260503072046 60 360 3.0 9.0 0.00 0.00 0.00 39 1009.7
20260503071544 59 360 2.0 9.0 0.00 0.00 0.00 40 1009.6
20260503071042 59 360 5.0 11.0 0.00 0.00 0.00 41 1009.5
20260503070541 59 360 7.0 13.0 0.00 0.00 0.00 41 1009.4
20260503055036 60 360 5.0 14.0 0.00 0.00 0.00 43 1009.6
20260503054539 60 360 9.0 17.0 0.00 0.00 0.00 41 1009.5
20260503054037 60 360 9.0 17.0 0.00 0.00 0.00 41 1009.4
20260503053535 60 360 8.0 11.0 0.00 0.00 0.00 41 1009.5
20260503053035 60 360 6.0 11.0 0.00 0.00 0.00 41 1009.6
20260503052536 60 360 4.0 9.0 0.00 0.00 0.00 41 1009.8
20260503052035 60 360 3.0 8.0 0.00 0.00 0.00 41 1009.8
20260503051535 60 360 2.0 10.0 0.00 0.00 0.00 41 1009.8
20260503051034 61 360 5.0 10.0 0.00 0.00 0.00 41 1009.4
20260503050534 61 360 4.0 10.0 0.00 0.00 0.00 39 1009.8
20260503050035 61 360 5.0 10.0 0.00 0.00 0.00 39 1010.2
20260503045533 61 360 4.0 6.0 0.00 0.00 0.00 42 1010.3
20260503045034 61 360 0.0 4.0 0.00 0.00 0.00 40 1010.6
20260503044538 61 360 1.0 5.0 0.00 0.00 0.00 39 1010.7
20260503044033 61 360 3.0 6.0 0.00 0.00 0.00 38 1010.5
20260503043532 61 360 3.0 9.0 0.00 0.00 0.00 37 1010.1
20260503043032 62 360 4.0 9.0 0.00 0.00 0.00 37 1009.9
20260503042534 62 360 1.0 12.0 0.00 0.00 0.00 37 1009.8
20260503042031 62 360 7.0 13.0 0.00 0.00 0.00 37 1009.8
20260503041535 62 360 6.0 13.0 0.00 0.00 0.00 36 1009.8
20260503041030 63 360 8.0 12.0 0.00 0.00 0.00 34 1009.6
20260503040530 64 360 3.0 9.0 0.00 0.00 0.00 29 1009.5
20260503040035 64 360 3.0 8.0 0.00 0.00 0.00 29 1009.4
20260503035530 64 360 2.0 11.0 0.00 0.00 0.00 29 1009.4
20260503035030 64 360 6.0 12.0 0.00 0.00 0.00 29 1009.2
20260503034530 64 360 7.0 12.0 0.00 0.00 0.00 30 1009.1
20260503034032 63 360 0.0 11.0 0.00 0.00 0.00 32 1009.2
20260503033528 63 360 4.0 11.0 0.00 0.00 0.00 33 1009.2
20260503033028 63 360 1.0 13.0 0.00 0.00 0.00 34 1009.0
20260503032528 63 360 7.0 14.0 0.00 0.00 0.00 33 1008.9
20260503032028 63 360 8.0 18.0 0.00 0.00 0.00 34 1008.8
20260503031528 63 360 7.0 18.0 0.00 0.00 0.00 34 1008.5
20260503031028 63 360 9.0 18.0 0.00 0.00 0.00 34 1008.6
20260503030526 64 360 8.0 16.0 0.00 0.00 0.00 32 1008.5
20260503030032 65 360 10.0 16.0 0.00 0.00 0.00 29 1008.4
20260503025525 65 360 5.0 13.0 0.00 0.00 0.00 27 1008.2
20260503025025 65 360 7.0 13.0 0.00 0.00 0.00 28 1008.1
20260503024526 65 360 5.0 12.0 0.00 0.00 0.00 28 1008.1
20260503024025 65 360 4.0 11.0 0.00 0.00 0.00 28 1007.7
20260503023525 66 360 5.0 13.0 0.00 0.00 0.00 28 1007.6
20260503023026 66 360 5.0 13.0 0.00 0.00 0.00 27 1007.4
20260503022524 66 360 6.0 14.0 0.00 0.00 0.00 27 1007.3
20260503022024 66 360 9.0 15.0 0.00 0.00 0.00 28 1007.3
20260503021524 66 360 9.0 15.0 0.00 0.00 0.00 27 1007.3
20260503021024 66 360 7.0 12.0 0.00 0.00 0.00 26 1007.4
20260503020523 66 360 6.0 15.0 0.00 0.00 0.00 26 1007.6
20260503020023 66 360 10.0 15.0 0.00 0.00 0.00 26 1007.7
20260503015526 66 360 8.0 12.0 0.00 0.00 0.00 28 1007.8
20260503015022 66 360 6.0 12.0 0.00 0.00 0.00 28 1008.1
20260503014523 66 360 3.0 13.0 0.00 0.00 0.00 27 1008.0
20260503014022 66 360 8.0 13.0 0.00 0.00 0.00 28 1008.1
20260503013522 66 360 5.0 15.0 0.00 0.00 0.00 30 1008.4
20260503013022 66 360 9.0 15.0 0.00 0.00 0.00 29 1008.6
20260503012522 66 360 7.0 14.0 0.00 0.00 0.00 28 1008.4
20260503012022 66 360 4.0 14.0 0.00 0.00 0.00 28 1008.4
20260503011529 66 360 7.0 14.0 0.00 0.00 0.00 28 1008.4
20260503011023 67 360 8.0 13.0 0.00 0.00 0.00 27 1008.3
20260503010520 67 360 5.0 13.0 0.00 0.00 0.00 27 1008.1
20260503010020 67 360 9.0 14.0 0.00 0.00 0.00 27 1008.1
20260503005522 67 360 8.0 16.0 0.00 0.00 0.00 26 1007.9
20260503005021 67 360 12.0 17.0 0.00 0.00 0.00 27 1007.8
20260503004520 67 360 11.0 19.0 0.00 0.00 0.00 27 1007.6
20260503004018 67 360 11.0 25.0 0.00 0.00 0.00 25 1007.4
20260503003519 68 360 13.0 25.0 0.00 0.00 0.00 25 1007.2
20260503003019 68 360 13.0 25.0 0.00 0.00 0.00 25 1007.0